Location: Venise Bay
(45.0825°N, 73.1481°W)
Time: 14:09:01
(UTC-05:00)

ISS - Pass Details

Date: 20 January 2020
Orbit: 416 x 422 km, 51.6° (Epoch: 20 February)

Event Time Altitude Azimuth Distance (km) Brightness Sun altitude
Rises 18:29:32 0° 215° (SW) 2,364 0.8 -18.5°
Reaches altitude 10° 18:31:44 10° 205° (SSW) 1,503 -0.5 -18.9°
Enters shadow 18:34:16 30° 161° (SSE) 775 -2.5 -19.4°
